Theta_e
308 307 307 308 307 304 302 297 287 303 305 287 288 286 289 292 293 297 297 298 297 296 297 296 296 296 299 303 304 299 304 302 296 298 303 307 305 301 302 295 294 296 295 295
307 307 307 307 306 304 302 291 291 302 301 283 285 289 289 290 290 292 295 295 297 299 297 295 298 298 302 303 303 303 304 302 295 295 302 305 300 302 303 303 302 296 293 296
307 307 307 307 305 304 302 290 285 288 294 293 288 287 286 286 292 291 292 293 297 296 295 297 296 298 300 302 304 310 307 303 298 293 296 302 300 301 302 301 297 297 297 299
307 307 306 305 305 304 299 290 286 289 283 286 287 288 288 286 286 292 295 294 294 294 294 295 296 297 298 301 306 306 306 299 300 301 301 302 301 301 302 300 301 297 300 301
307 306 306 305 305 304 297 286 288 288 287 287 288 288 286 286 288 289 289 290 293 294 293 294 294 296 297 297 300 303 303 300 301 298 300 300 298 301 302 303 302 303 303 303
306 307 306 306 305 304 294 293 296 291 288 287 287 287 288 288 290 291 292 292 292 292 295 299 299 299 299 298 297 298 302 301 297 294 298 298 294 299 300 303 305 304 300 306
306 305 305 305 305 304 298 297 295 288 284 287 287 287 290 289 290 288 294 294 292 296 302 302 301 299 298 297 297 298 303 303 300 296 298 289 301 306 304 303 305 307 307 309
306 305 305 305 304 303 301 301 296 289 285 288 287 290 289 291 292 291 292 296 299 302 300 294 291 293 294 295 297 297 300 302 301 297 296 298 301 304 302 302 303 309 308 310
306 306 305 304 305 304 302 302 303 294 287 287 289 286 292 290 289 290 293 298 302 300 296 292 286 286 290 290 294 301 302 304 300 299 295 291 302 309 310 310 300 311 312 312
306 306 305 304 304 304 303 301 302 296 289 292 288 288 290 293 292 290 293 294 296 300 292 288 287 287 293 289 289 294 296 298 294 294 296 299 306 310 311 299 302 315 314 314
306 306 305 305 304 305 304 300 303 297 292 293 294 294 292 293 294 290 294 294 295 294 289 288 288 288 291 291 295 294 294 293 293 297 293 291 308 309 305 314 315 315 315 316
307 306 306 306 305 305 304 297 303 304 295 294 298 299 300 299 299 297 296 294 294 298 293 293 292 290 294 291 286 297 294 298 296 298 298 310 313 314 318 319 317 313 317 317
306 306 306 306 305 305 303 300 301 300 293 294 293 294 298 300 301 303 295 297 298 297 301 297 298 291 297 291 291 293 297 305 301 302 304 308 311 315 316 314 314 315 317 317
306 306 306 305 305 305 304 300 302 299 295 288 291 299 297 300 300 300 301 301 300 301 301 298 296 292 300 296 297 296 296 302 303 303 307 308 310 314 314 314 315 316 316 317
305 305 306 306 305 305 305 302 302 301 294 287 290 295 297 299 300 298 299 299 298 297 296 294 294 299 298 299 299 297 302 299 299 300 308 310 312 315 315 314 314 316 317 317
305 304 304 305 305 305 301 294 301 304 302 291 285 294 294 299 299 298 297 298 298 298 295 295 299 301 300 294 293 300 305 305 305 306 310 311 314 317 316 316 317 317 317 318
304 305 304 304 304 303 297 294 300 304 303 293 288 289 296 300 298 298 297 299 297 298 295 294 296 298 300 296 291 299 304 305 305 307 310 310 311 312 316 316 316 316 319 319
304 305 306 305 302 300 297 304 305 304 299 295 287 287 291 299 293 292 300 296 297 295 295 297 295 298 298 291 297 300 301 302 303 306 310 312 315 316 314 316 316 315 315 316
304 304 303 301 299 297 299 304 304 304 298 288 288 286 283 296 295 293 294 296 288 297 292 294 297 293 289 295 298 300 301 302 304 306 309 312 312 314 314 314 315 314 315 316
301 300 296 292 298 302 304 299 294 294 293 293 287 292 287 292 292 290 287 292 290 287 292 298 292 291 298 301 302 302 302 304 306 305 307 311 312 313 314 314 315 317 317 317
298 293 292 297 301 299 296 289 288 289 287 291 292 292 289 295 287 288 291 289 292 286 289 290 289 290 297 301 301 303 306 309 308 309 310 313 315 314 314 315 316 316 316 317
298 297 300 298 294 291 287 286 288 287 286 291 290 291 292 295 293 289 292 289 289 285 294 290 287 295 300 301 302 304 305 305 305 307 309 311 313 314 314 313 314 315 316 318
301 297 291 290 289 283 283 282 285 285 291 292 292 289 292 295 295 291 288 286 285 288 285 287 291 297 300 302 303 302 305 305 305 306 306 307 307 308 311 312 314 314 313 317
292 288 283 285 285 285 286 286 288 292 292 293 292 291 291 294 290 290 286 290 291 287 285 287 294 297 299 300 303 302 304 305 306 306 306 306 306 305 306 310 313 315 316 317
290 290 284 286 290 291 291 292 292 294 295 293 292 292 292 292 289 290 287 287 285 285 287 293 297 300 301 301 302 304 303 303 304 305 305 306 307 307 306 309 311 316 316 315
292 291 289 291 289 291 292 293 292 296 294 294 294 290 289 287 288 287 286 285 283 287 295 298 301 301 303 303 304 304 304 303 303 302 302 303 305 305 305 307 308 310 314 315
291 291 293 291 290 290 292 293 294 297 294 290 292 287 285 288 286 286 286 284 286 293 297 300 301 301 302 303 303 303 303 302 302 303 303 303 304 305 305 303 304 306 307 309
Wind_Speed
23 20 19 14 15 11 5 3 4 8 13 8 4 17 13 11 12 22 7 4 19 10 11 16 15 18 13 20 19 25 20 11 15 10 3 16 22 18 15 10 9 4 5 10
22 20 18 11 15 14 4 3 3 8 11 8 4 14 19 18 13 13 7 6 4 13 8 6 13 10 7 15 23 21 14 12 13 13 5 3 13 12 14 6 3 12 12 7
22 16 9 10 12 13 5 2 4 2 6 4 5 16 17 14 15 20 16 13 6 4 12 1 5 10 2 12 21 15 20 10 24 19 12 13 11 12 15 16 10 10 12 14
18 13 2 7 9 10 5 4 4 2 5 6 14 8 8 18 16 15 3 6 4 3 9 13 6 3 5 4 7 13 17 19 16 20 14 18 19 18 17 16 15 13 12 11
16 14 6 8 10 9 5 3 3 4 0 1 15 7 10 21 13 19 16 11 5 6 2 2 10 0 4 3 4 12 3 9 14 17 17 21 22 21 19 21 20 17 15 15
16 16 7 7 9 9 2 1 1 2 1 1 2 6 15 12 20 8 20 10 14 7 5 7 4 4 4 1 1 4 6 8 8 16 12 17 20 25 23 18 15 15 15 17
13 14 12 5 9 9 3 2 2 1 3 4 3 4 9 20 13 21 3 13 7 3 10 6 5 3 2 1 1 2 6 7 3 6 11 13 1 10 22 20 18 19 16 16
12 11 11 4 6 11 1 2 3 2 4 3 7 12 14 16 17 15 12 3 3 5 4 1 4 1 1 4 5 5 2 4 5 6 9 3 4 4 12 15 16 17 21 19
17 10 8 4 9 12 1 1 2 2 3 1 2 7 11 9 12 14 7 1 4 2 2 2 5 7 6 7 6 4 8 1 3 4 9 18 7 8 6 10 11 15 19 17
13 14 7 3 3 11 3 1 2 1 3 1 3 4 1 1 6 7 6 5 4 5 4 2 5 6 3 7 13 10 6 4 9 6 5 4 5 9 14 14 6 9 18 17
10 11 8 4 1 12 3 0 2 2 2 4 3 2 5 3 1 3 4 5 4 4 8 6 8 8 10 8 7 9 11 7 7 5 8 13 6 11 13 6 3 7 13 15
14 10 11 6 3 10 2 1 1 1 3 4 2 6 4 4 3 4 0 2 4 2 6 6 4 7 6 13 14 14 9 10 11 8 6 4 18 11 15 6 6 7 11 11
17 11 11 6 6 6 4 2 1 1 2 5 3 3 0 2 6 1 2 1 2 3 2 3 5 6 3 7 14 17 18 7 11 10 16 10 13 12 8 6 3 3 6 12
22 17 9 8 5 2 2 1 1 2 1 3 2 2 4 1 1 3 3 3 2 2 2 4 3 4 3 6 2 7 14 12 14 12 10 5 6 14 6 7 6 8 5 7
18 19 14 9 6 6 3 2 1 1 2 3 6 7 3 3 2 5 7 6 2 1 2 2 4 2 4 3 1 5 5 14 10 12 7 9 10 15 16 15 14 12 12 9
16 12 11 9 9 6 0 1 1 1 1 3 4 3 3 0 1 6 8 7 3 2 3 3 3 3 4 4 7 10 4 3 1 6 16 13 19 11 19 17 14 12 10 7
18 11 7 6 6 2 2 1 3 3 2 3 4 4 2 1 3 3 3 5 3 4 3 5 5 4 6 3 6 15 10 8 8 9 12 9 15 13 14 16 12 11 10 9
18 11 7 5 2 2 2 1 5 2 2 2 3 4 4 4 1 3 5 5 5 4 4 4 6 3 4 7 14 13 12 15 16 10 8 17 12 10 10 12 13 12 10 10
15 10 2 0 0 1 2 11 2 1 2 3 2 3 3 4 2 0 1 3 4 4 5 5 5 3 7 8 9 9 8 9 10 10 13 14 15 16 13 16 15 15 13 10
9 3 2 1 1 11 8 2 2 1 1 3 3 3 4 4 3 4 3 4 3 4 6 4 5 5 13 9 8 8 9 12 11 8 13 12 15 16 18 19 14 13 10 8
4 4 2 4 9 2 0 3 2 2 3 2 3 3 5 3 3 3 4 3 3 4 4 5 5 4 4 5 8 10 7 10 7 8 15 15 14 17 16 14 13 12 10 8
4 4 3 3 3 2 3 3 3 2 4 3 4 5 4 2 3 4 3 3 3 5 5 4 3 1 4 3 4 6 5 10 8 6 6 5 6 5 12 11 14 11 9 8
1 1 2 3 3 5 5 7 2 5 5 3 8 7 3 3 1 3 2 3 4 3 3 5 1 2 2 2 6 8 9 14 11 6 7 6 10 7 6 13 13 14 11 8
3 5 6 5 4 4 2 4 5 5 6 10 9 6 3 1 3 2 4 4 4 1 2 3 2 3 3 6 4 9 7 6 15 13 7 6 14 7 11 13 11 14 12 10
3 3 6 4 4 6 6 7 6 5 5 7 6 5 3 2 4 3 4 6 4 5 4 2 4 3 8 3 5 3 4 9 13 10 7 6 6 12 10 9 12 12 11 9
2 2 3 3 4 6 6 7 7 3 7 3 2 4 5 4 6 4 5 9 7 5 4 7 9 11 8 7 7 6 7 10 13 13 11 11 12 12 11 12 12 10 9 8
3 3 2 4 5 6 6 7 5 6 5 4 4 5 5 5 5 5 4 5 5 6 6 7 10 8 8 9 11 11 12 12 11 13 14 13 11 12 12 13 10 10 9 6
Wind_Direction
310 304 299 278 202 187 187 221 241 161 152 189 221 218 216 332 306 248 303 258 226 204 176 185 194 200 201 188 160 191 190 199 208 195 168 224 204 205 203 222 200 238 282 270
316 307 298 247 182 171 144 208 221 198 169 212 204 230 245 265 300 305 242 281 231 210 182 197 211 189 212 179 184 175 166 203 199 215 192 160 209 195 203 210 228 219 241 251
331 320 323 170 175 178 167 123 232 196 194 231 250 224 226 245 274 265 272 291 299 225 209 151 168 194 202 183 190 177 175 185 206 212 230 194 197 187 202 199 213 220 234 252
344 346 134 178 180 182 155 170 221 300 205 218 226 226 240 229 238 247 275 243 277 307 215 205 202 159 166 120 198 171 187 213 215 216 193 194 209 211 204 209 217 220 223 222
337 338 287 210 193 199 191 184 217 157 127 270 219 210 213 230 230 236 233 256 59 29 338 341 189 108 25 121 95 173 181 209 203 206 207 213 223 220 212 215 213 232 244 243
343 338 299 226 186 152 120 270 189 342 286 221 204 204 222 219 223 253 238 270 253 290 25 335 323 295 290 326 106 119 148 148 168 217 200 221 240 226 216 213 206 216 224 238
349 2 353 272 196 162 132 220 70 104 273 252 233 222 234 227 244 226 282 215 271 32 314 277 231 217 238 185 244 15 130 139 177 157 144 217 185 214 212 213 207 213 224 240
344 352 354 81 157 169 125 172 148 153 303 291 283 253 235 229 227 236 220 173 95 312 341 336 226 237 315 207 222 164 191 110 137 174 207 269 154 183 169 194 215 212 215 226
345 328 359 20 167 160 97 184 126 177 254 123 333 277 251 203 205 222 223 60 314 280 34 220 215 199 195 188 180 152 139 296 215 154 214 231 169 190 208 174 222 202 212 211
341 358 11 14 229 171 163 191 144 160 271 259 3 312 168 257 162 221 234 211 191 221 199 173 204 217 251 221 217 170 164 152 205 196 241 274 239 165 158 195 194 195 201 206
0 355 1 351 330 179 169 317 227 217 275 269 254 281 26 17 225 171 131 164 187 185 195 196 208 226 214 245 252 224 202 186 197 190 222 240 158 150 185 189 177 200 193 188
17 9 17 43 90 164 129 56 348 275 251 292 337 283 253 220 325 322 268 33 138 95 200 199 207 219 204 217 230 243 249 227 223 218 225 91 181 174 216 191 182 192 191 188
8 360 11 43 117 89 116 119 349 336 321 284 265 261 19 210 234 209 311 188 19 153 63 299 224 222 179 225 222 226 238 256 245 221 228 222 198 227 241 200 179 181 186 178
7 11 16 54 79 6 26 74 101 258 298 294 305 346 272 204 209 242 231 111 88 44 281 262 247 224 184 222 326 254 224 209 233 238 240 227 239 220 228 189 164 165 168 186
3 9 36 90 68 46 63 60 349 329 354 309 295 309 273 282 232 208 199 192 145 35 284 260 220 199 234 181 234 238 251 223 222 233 192 214 204 207 201 195 200 183 167 163
348 342 358 359 9 356 312 254 145 0 225 287 298 332 264 258 54 175 182 188 162 212 231 253 244 231 230 227 236 240 190 113 36 305 318 308 279 209 197 199 195 184 183 188
340 329 308 329 346 336 350 303 315 331 284 263 279 301 280 240 143 136 154 182 195 213 221 229 262 226 195 230 237 238 222 239 282 311 321 284 251 243 196 207 194 186 198 195
332 323 295 295 329 244 246 264 301 158 272 268 299 284 286 194 187 199 176 176 196 222 239 222 213 190 223 246 245 274 274 271 274 286 308 270 292 265 196 192 175 177 204 210
323 318 342 328 10 284 293 312 67 42 308 302 273 289 295 313 196 167 271 171 193 210 223 228 200 186 219 238 261 277 298 268 288 300 296 275 244 238 196 187 184 186 193 192
329 25 9 305 32 311 305 213 277 171 202 226 260 254 256 247 214 177 210 193 227 213 211 175 216 230 243 233 234 277 289 263 256 278 272 239 228 211 190 182 172 163 165 163
17 6 346 293 305 283 73 323 333 311 264 216 254 267 279 193 230 210 210 190 204 223 189 207 199 229 217 220 256 283 289 249 281 291 266 262 239 197 174 155 142 132 137 133
290 305 282 283 336 33 6 334 307 302 309 305 303 292 277 243 172 234 223 212 202 223 154 207 220 145 242 297 331 340 323 24 316 279 264 274 122 196 134 130 130 121 115 121
259 279 343 354 348 17 13 358 348 317 330 294 316 309 280 282 228 260 288 241 227 143 189 184 83 115 100 60 26 356 344 264 210 49 38 72 77 71 110 122 108 119 123 136
33 8 22 20 360 346 331 323 292 281 259 298 310 287 266 298 285 290 287 278 275 295 66 62 63 74 113 331 343 289 9 80 103 86 355 82 87 115 62 65 107 103 99 116
52 31 12 340 311 273 261 268 280 275 274 303 298 270 265 333 298 4 299 310 357 38 28 27 28 85 160 157 263 303 37 86 93 118 120 62 82 85 88 62 65 82 96 104
65 74 327 290 286 317 330 322 304 318 311 277 255 322 345 2 327 327 352 324 22 345 36 43 49 52 61 73 71 49 64 58 62 60 59 59 49 51 53 54 48 56 79 96
23 349 273 275 277 275 300 308 297 322 321 359 22 22 347 303 330 355 15 339 303 311 34 41 36 32 44 65 73 61 54 58 61 70 64 64 65 64 58 50 27 28 26 41